| time (UTC) | temp C | wind direction | speed KPH | gust KPH | rain 1hr cm | rain 24hr cm | rain mn cm | humidity % | barometer mb |
| 20260504081530 | 8 | 234 | 0.0 | 0.0 | 0.00 | 0.00 | 0.00 | 70 | 1015.5 |
| 20260504044554 | 10 | 234 | 0.0 | 0.0 | 0.00 | 0.00 | 0.00 | 69 | 1017.1 |
| 20260504043057 | 10 | 249 | 0.0 | 0.0 | 0.00 | 0.00 | 0.00 | 69 | 1017.0 |
| 20260504041549 | 10 | 249 | 0.0 | 0.0 | 0.00 | 0.00 | 0.00 | 70 | 1017.2 |
| 20260504040046 | 10 | 347 | 0.0 | 0.0 | 0.00 | 0.00 | 0.00 | 66 | 1016.8 |
| 20260504034548 | 10 | 249 | 0.0 | 0.0 | 0.00 | 0.00 | 0.00 | 67 | 1017.1 |
| 20260504033044 | 9 | 247 | 0.0 | 0.0 | 0.00 | 0.00 | 0.00 | 66 | 1017.0 |
| 20260504031544 | 9 | 247 | 0.0 | 0.0 | 0.00 | 0.00 | 0.00 | 65 | 1016.9 |
| 20260504030043 | 9 | 247 | 0.0 | 0.0 | 0.00 | 0.00 | 0.00 | 66 | 1016.9 |
| 20260504024545 | 9 | 247 | 0.0 | 0.0 | 0.00 | 0.00 | 0.00 | 64 | 1017.0 |
| 20260504023042 | 9 | 247 | 0.0 | 0.0 | 0.00 | 0.00 | 0.00 | 64 | 1016.9 |
| 20260504021541 | 8 | 247 | 0.0 | 0.0 | 0.00 | 0.00 | 0.00 | 64 | 1016.7 |
| 20260504020113 | 9 | 347 | 0.0 | 0.0 | 0.00 | 0.00 | 0.00 | 63 | 1016.7 |
| 20260504014557 | 9 | 248 | 0.0 | 0.0 | 0.00 | 0.00 | 0.00 | 62 | 1016.7 |
| 20260504013050 | 10 | 347 | 0.0 | 0.0 | 0.00 | 0.00 | 0.00 | 60 | 1016.7 |
| 20260504011540 | 10 | 316 | 0.0 | 0.0 | 0.00 | 0.00 | 0.00 | 61 | 1016.8 |
| 20260504010043 | 10 | 316 | 0.0 | 0.0 | 0.00 | 0.00 | 0.00 | 58 | 1016.7 |
| 20260504004558 | 11 | 315 | 0.0 | 0.0 | 0.00 | 0.00 | 0.00 | 54 | 1016.5 |
| 20260504003042 | 12 | 316 | 0.0 | 0.0 | 0.00 | 0.00 | 0.00 | 48 | 1016.6 |
| 20260504001558 | 13 | 316 | 0.0 | 0.0 | 0.00 | 0.00 | 0.00 | 44 | 1016.5 |
| 20260504000037 | 14 | 347 | 0.0 | 0.0 | 0.00 | 0.00 | 0.00 | 42 | 1016.5 |
| 20260503234535 | 15 | 347 | 0.0 | 0.0 | 0.00 | 0.00 | 0.00 | 38 | 1016.5 |
| 20260503233039 | 15 | 347 | 0.0 | 4.8 | 0.00 | 0.00 | 0.00 | 37 | 1016.7 |
| 20260503231534 | 16 | 161 | 0.0 | 3.2 | 0.00 | 0.00 | 0.00 | 36 | 1016.8 |
| 20260503230043 | 16 | 222 | 0.0 | 8.0 | 0.00 | 0.00 | 0.00 | 34 | 1016.9 |
| 20260503224530 | 16 | 216 | 1.6 | 12.9 | 0.00 | 0.00 | 0.00 | 35 | 1017.0 |
| 20260503223030 | 17 | 190 | 1.6 | 6.4 | 0.00 | 0.00 | 0.00 | 34 | 1017.0 |
| 20260503221529 | 17 | 177 | 0.0 | 3.2 | 0.00 | 0.00 | 0.00 | 34 | 1017.0 |
| 20260503220038 | 16 | 260 | 0.0 | 6.4 | 0.00 | 0.00 | 0.00 | 35 | 1017.1 |
| 20260503214527 | 16 | 198 | 0.0 | 12.9 | 0.00 | 0.00 | 0.00 | 34 | 1017.3 |
| 20260503213026 | 17 | 282 | 1.6 | 14.5 | 0.00 | 0.00 | 0.00 | 32 | 1017.2 |
| 20260503211524 | 17 | 225 | 3.2 | 12.9 | 0.00 | 0.00 | 0.00 | 31 | 1017.3 |
| 20260503210023 | 16 | 193 | 0.0 | 8.0 | 0.00 | 0.00 | 0.00 | 36 | 1017.4 |
| 20260503204521 | 16 | 104 | 0.0 | 12.9 | 0.00 | 0.00 | 0.00 | 32 | 1017.6 |
| 20260503203040 | 16 | 316 | 0.0 | 6.4 | 0.00 | 0.00 | 0.00 | 35 | 1018.0 |
| 20260503201517 | 16 | 237 | 0.0 | 6.4 | 0.00 | 0.00 | 0.00 | 36 | 1018.3 |
| 20260503200015 | 16 | 184 | 0.0 | 6.4 | 0.00 | 0.00 | 0.00 | 36 | 1018.4 |
| 20260503194531 | 16 | 257 | 1.6 | 9.7 | 0.00 | 0.00 | 0.00 | 34 | 1018.7 |
| 20260503193011 | 16 | 141 | 1.6 | 9.7 | 0.00 | 0.00 | 0.00 | 35 | 1019.0 |
| 20260503191509 | 15 | 92 | 1.6 | 11.3 | 0.00 | 0.00 | 0.00 | 37 | 1019.4 |
| 20260503190010 | 16 | 211 | 1.6 | 12.9 | 0.00 | 0.00 | 0.00 | 36 | 1019.5 |
| 20260503184507 | 16 | 287 | 0.0 | 11.3 | 0.00 | 0.00 | 0.00 | 38 | 1020.0 |
| 20260503183006 | 15 | 273 | 3.2 | 14.5 | 0.00 | 0.00 | 0.00 | 36 | 1020.1 |
| 20260503181505 | 15 | 254 | 0.0 | 9.7 | 0.00 | 0.00 | 0.00 | 37 | 1020.2 |
| 20260503180002 | 14 | 110 | 1.6 | 8.0 | 0.00 | 0.00 | 0.00 | 37 | 1020.5 |
| 20260503174502 | 13 | 302 | 3.2 | 14.5 | 0.00 | 0.00 | 0.00 | 41 | 1020.8 |
| 20260503173002 | 13 | 288 | 1.6 | 11.3 | 0.00 | 0.00 | 0.00 | 38 | 1020.9 |
| 20260503171605 | 14 | 146 | 1.6 | 8.0 | 0.00 | 0.00 | 0.00 | 43 | 1021.1 |